York, PA

10:00 PM EDT on April 30, 2017 (GMT -0400)
York

Weather History for KTHV - October, 2013

Change the Weather History Date:

Tuesday, October 8, 2013

  Actual Average Record
Temperature  
Mean Temperature 55 °F -  
Max Temperature 68 °F 0 °F 90 °F (2007)
Min Temperature 44 °F - 26 °F (2001)
Degree Days  
Heating Degree Days 10    
Growing Degree Days 5 (Base 50)    
Moisture  
Dew Point 44 °F    
Average Humidity 72    
Maximum Humidity 93    
Minimum Humidity 37    
Precipitation  
Precipitation 0.01 in - - ()
Sea Level Pressure  
Sea Level Pressure 30.24 in    
Wind  
Wind Speed 2 mph (NNE)    
Max Wind Speed 12 mph    
Max Gust Speed 16 mph    
Visibility 10 miles    
Events      
Averages and records for this station are not official NWS values.
T = Trace of Precipitation, MM = Missing Value Source: NWS Daily Summary

Daily Weather History Graph

Daily Weather History Graph

Search for Another Location

Airport or City:

Trip Planner

Search our weather history database for the weather conditions in past years. The results will help you decide how hot, cold, wet, or windy it might be!

Date:

Astronomy

Oct. 08, 2013 Rise Set
Actual Time 7:10 AM EDT 6:38 PM EDT
Civil Twilight 6:43 AM EDT 7:05 PM EDT
Nautical Twilight 6:12 AM EDT 7:36 PM EDT
Astronomical Twilight 5:41 AM EDT 8:07 PM EDT
Moon 11:02 AM EDT (10/8) 9:13 PM EDT (10/8)
Length of Visible Light 12h 21m
Length of Day
11h 27m
Waxing Crescent, 16% of the Moon is Illuminated
Oct 8
Waxing Crescent
Oct 11
First Quarter
Oct 18
Full
Oct 26
Last Quarter
Nov 3
New

Hourly Weather History & Observations

Time (EDT) Temp. Dew Point Humidity Pressure Visibility Wind Dir Wind Speed Gust Speed Precip Events Conditions
12:53 AM 48.9 °F 43.0 °F 80% 30.08 in 10.0 mi Calm Calm - N/A   Clear
1:53 AM 46.9 °F 44.1 °F 90% 30.10 in 10.0 mi Calm Calm - N/A   Clear
2:53 AM 46.0 °F 43.0 °F 89% 30.11 in 10.0 mi Calm Calm - N/A   Clear
3:53 AM 45.0 °F 43.0 °F 93% 30.14 in 10.0 mi Calm Calm - N/A   Clear
4:53 AM 44.1 °F 42.1 °F 93% 30.17 in 10.0 mi Calm Calm - N/A   Clear
5:53 AM 44.1 °F 42.1 °F 93% 30.19 in 10.0 mi Calm Calm - N/A   Clear
6:53 AM 45.0 °F 41.0 °F 86% 30.21 in 10.0 mi Calm Calm - N/A   Clear
7:53 AM 46.0 °F 43.0 °F 89% 30.25 in 10.0 mi Calm Calm - 0.01 in   Clear
8:53 AM 53.1 °F 46.0 °F 77% 30.28 in 10.0 mi Calm Calm - N/A   Clear
9:53 AM 57.9 °F 46.9 °F 67% 30.30 in 10.0 mi Calm Calm - N/A   Clear
10:53 AM 62.1 °F 46.0 °F 56% 30.30 in 10.0 mi North 10.4 mph - N/A   Clear
11:53 AM 63.0 °F 44.1 °F 50% 30.30 in 10.0 mi North 9.2 mph - N/A   Clear
12:53 PM 63.0 °F 42.1 °F 46% 30.28 in 10.0 mi North 11.5 mph 16.1 mph N/A   Clear
1:53 PM 66.9 °F 42.1 °F 40% 30.27 in 10.0 mi NNE 9.2 mph - N/A   Clear
2:53 PM 66.9 °F 39.9 °F 37% 30.26 in 10.0 mi NNE 5.8 mph - N/A   Clear
3:53 PM 66.0 °F 41.0 °F 40% 30.26 in 10.0 mi ENE 9.2 mph - N/A   Clear
4:53 PM 66.0 °F 41.0 °F 40% 30.25 in 10.0 mi North 9.2 mph - N/A   Clear
5:53 PM 64.0 °F 42.1 °F 45% 30.26 in 10.0 mi NNE 4.6 mph - N/A   Clear
6:53 PM 55.0 °F 46.9 °F 74% 30.28 in 10.0 mi Calm Calm - N/A   Clear
7:53 PM 51.1 °F 46.9 °F 86% 30.29 in 10.0 mi Calm Calm - N/A   Clear
8:53 PM 50.0 °F 46.0 °F 86% 30.30 in 10.0 mi Calm Calm - N/A   Clear
9:53 PM 48.9 °F 46.0 °F 90% 30.31 in 10.0 mi Calm Calm - N/A   Clear
10:53 PM 48.0 °F 45.0 °F 89% 30.32 in 10.0 mi Calm Calm - N/A   Clear
11:53 PM 46.9 °F 45.0 °F 93% 30.32 in 10.0 mi Calm Calm - N/A   Clear